Columbia, MO

3:27 AM CDT on June 26, 2017 (GMT -0500)
Columbia Regional

Weather History for KCOU - August, 2013

Change the Weather History Date:

Wednesday, August 7, 2013

  Actual Average Record
Temperature  
Mean Temperature 79 °F 77 °F  
Max Temperature 86 °F 88 °F 107 °F (1934)
Min Temperature 71 °F 66 °F 51 °F (1997)
Degree Days  
Heating Degree Days 0 0  
Month to date heating degree days 0 0  
Since 1 June heating degree days 6 11  
Since 1 July heating degree days 0 0  
Cooling Degree Days 14 12  
Month to date cooling degree days 74 84  
Year to date cooling degree days 797 817  
Since 1 June cooling degree days 663 714  
Growing Degree Days 30 (Base 50)    
Moisture  
Dew Point 71 °F    
Average Humidity 83    
Maximum Humidity 100    
Minimum Humidity 65    
Precipitation  
Precipitation T in 0.13 in 3.21 in (2000)
Month to date precipitation 0.93 0.91  
Year to date precipitation 32.14 26.30  
Snow  
Snow 0.00 in 0.00 in 0.00 in (2015)
Month to date snowfall 0.0 0.0  
Since 1 June snowfall 0.0 0.0  
Since 1 July snowfall 0.0 0.0  
Snow Depth 0.00 in    
Sea Level Pressure  
Sea Level Pressure 29.88 in    
Wind  
Wind Speed 9 mph (WSW)    
Max Wind Speed 23 mph    
Max Gust Speed 31 mph    
Visibility 10 miles    
Events Thunderstorm    
T = Trace of Precipitation, MM = Missing Value Source: NWS Daily Summary

Daily Weather History Graph

Daily Weather History Graph

Search for Another Location

Airport or City:

Trip Planner

Search our weather history database for the weather conditions in past years. The results will help you decide how hot, cold, wet, or windy it might be!

Date:

Astronomy

Aug. 07, 2013 Rise Set
Actual Time 6:15 AM CDT 8:12 PM CDT
Civil Twilight 5:46 AM CDT 8:41 PM CDT
Nautical Twilight 5:11 AM CDT 9:17 PM CDT
Astronomical Twilight 4:32 AM CDT 9:55 PM CDT
Moon 7:03 AM CDT (8/7) 8:21 PM CDT (8/7)
Length of Visible Light 14h 55m
Length of Day
13h 57m
New Moon, 1% of the Moon is Illuminated
Aug 7
New Moon
Aug 14
First Quarter
Aug 20
Full
Aug 28
Last Quarter
Sep 5
New

Hourly Weather History & Observations

Time (CDT) Temp. Heat Index Dew Point Humidity Pressure Visibility Wind Dir Wind Speed Gust Speed Precip Events Conditions
12:54 AM 75.0 °F - 73.0 °F 94% 29.85 in 10.0 mi South 8.1 mph - N/A   Clear
1:54 AM 73.9 °F - 73.0 °F 97% 29.80 in 10.0 mi SE 6.9 mph - N/A   Clear
2:54 AM 73.9 °F - 72.0 °F 93% 29.81 in 10.0 mi South 9.2 mph - N/A Thunderstorm Scattered Clouds
3:14 AM 73.9 °F - 72.0 °F 93% 29.85 in 10.0 mi South 9.2 mph - N/A   Mostly Cloudy
3:54 AM 73.0 °F - 71.1 °F 93% 29.80 in 10.0 mi SE 5.8 mph - N/A   Mostly Cloudy
4:30 AM 73.0 °F - 71.1 °F 93% 29.84 in 10.0 mi SW 6.9 mph - N/A Thunderstorm Clear
4:54 AM 73.9 °F - 71.1 °F 91% 29.86 in 10.0 mi SW 16.1 mph - N/A Thunderstorm Mostly Cloudy
5:04 AM 73.9 °F - 71.1 °F 91% 29.87 in 10.0 mi SW 15.0 mph - N/A   Mostly Cloudy
5:11 AM 73.9 °F - 71.1 °F 91% 29.86 in 10.0 mi SW 13.8 mph - N/A Thunderstorm Scattered Clouds
5:26 AM 73.0 °F - 70.0 °F 90% 29.86 in 10.0 mi WSW 15.0 mph - N/A   Clear
5:54 AM 73.0 °F - 69.1 °F 87% 29.84 in 10.0 mi WSW 18.4 mph 31.1 mph N/A   Clear
6:25 AM 73.0 °F - 69.1 °F 87% 29.90 in 10.0 mi WSW 15.0 mph - N/A Thunderstorm Clear
6:40 AM 73.0 °F - 69.1 °F 87% 29.91 in 10.0 mi SW 18.4 mph 25.3 mph N/A   Partly Cloudy
6:54 AM 73.0 °F - 69.1 °F 87% 29.88 in 10.0 mi SW 15.0 mph - N/A   Scattered Clouds
7:54 AM 73.0 °F - 69.1 °F 87% 29.86 in 10.0 mi WSW 5.8 mph - 0.00 in   Partly Cloudy
8:54 AM 73.9 °F - 69.1 °F 85% 29.88 in 10.0 mi SSE 4.6 mph - N/A   Clear
9:54 AM 77.0 °F - 69.1 °F 76% 29.88 in 10.0 mi West 9.2 mph - N/A   Clear
10:54 AM 78.1 °F - 70.0 °F 76% 29.88 in 10.0 mi SW 10.4 mph - N/A   Clear
11:54 AM 80.1 °F 83.2 °F 70.0 °F 71% 29.90 in 10.0 mi SW 12.7 mph - N/A   Clear
12:14 PM 80.1 °F 83.2 °F 70.0 °F 71% 29.92 in 10.0 mi WSW 10.4 mph - N/A   Mostly Cloudy
12:44 PM 80.1 °F 83.2 °F 70.0 °F 71% 29.92 in 10.0 mi WSW 11.5 mph - N/A   Scattered Clouds
12:54 PM 79.0 °F - 70.0 °F 74% 29.89 in 10.0 mi WSW 10.4 mph - N/A   Scattered Clouds
1:42 PM 81.0 °F 84.9 °F 71.1 °F 72% 29.91 in 10.0 mi WSW 11.5 mph - N/A   Mostly Cloudy
1:49 PM 82.4 °F 87.2 °F 71.6 °F 70% 29.91 in 10.0 mi WSW 11.5 mph - N/A   Scattered Clouds
1:54 PM 82.0 °F 85.9 °F 70.0 °F 67% 29.89 in 10.0 mi WSW 10.4 mph - N/A   Mostly Cloudy
2:54 PM 82.0 °F 86.3 °F 71.1 °F 69% 29.89 in 10.0 mi West 10.4 mph - N/A   Overcast
3:40 PM 84.0 °F 89.0 °F 71.1 °F 65% 29.89 in 10.0 mi WSW 8.1 mph - N/A   Scattered Clouds
3:54 PM 84.0 °F 89.0 °F 71.1 °F 65% 29.87 in 10.0 mi West 6.9 mph - N/A   Scattered Clouds
4:54 PM 84.9 °F 90.7 °F 72.0 °F 65% 29.86 in 10.0 mi WNW 8.1 mph - N/A   Partly Cloudy
5:54 PM 84.9 °F 91.4 °F 73.0 °F 67% 29.87 in 10.0 mi WNW 6.9 mph - N/A   Partly Cloudy
6:54 PM 84.0 °F 89.0 °F 71.1 °F 65% 29.89 in 10.0 mi NW 8.1 mph - N/A   Clear
7:54 PM 79.0 °F - 73.0 °F 82% 29.89 in 10.0 mi NNE 10.4 mph - N/A   Scattered Clouds
8:54 PM 75.0 °F - 70.0 °F 84% 29.91 in 10.0 mi NE 9.2 mph - N/A   Partly Cloudy
9:54 PM 73.0 °F - 70.0 °F 90% 29.92 in 10.0 mi North 3.5 mph - 0.00 in   Partly Cloudy
10:54 PM 73.0 °F - 69.1 °F 87% 29.92 in 10.0 mi North 3.5 mph - N/A   Partly Cloudy
11:54 PM 71.1 °F - 69.1 °F 93% 29.93 in 10.0 mi North 6.9 mph - N/A   Partly Cloudy